contact:dominique.lefevre@mio.osupytheas.fr, maurice.libes@osupytheas.fr, didier.mallarino@osupytheas.fr
Project:EMSO http://www.emso-fr.org/EMSO-France
Depth: 2436.0 m
Title:EMSO Ligure Ouest : Data MII capteur AQUADOPP
Date,Latitude,Longitude,X_East,Y_North,Z_Up,Amplitude_X,Amplitude_Y,Amplitude_Z,Batterie,SoundSpeed,Heading,Pitch,Roll,Pressure,TIS,Speed,Direction
, degrees North, degrees East, m.s-1, m.s-1,m.s-1, 1, 1, 1, Volt, m.s-1, degree, degree, degree, dbar, degree_C, m.s-1, degree
2020-08-09T00:04:03,42.805,6.029,0.046,0.013,0.005,103.0,108.0,101.0,13.3,1505.3,325.2,-0.8,1.8,2470.467,13.33,0.047,74.2
2020-08-09T00:07:03,42.805,6.029,0.026,0.031,0.024,102.0,107.0,101.0,13.4,1505.3,326.8,-0.7,1.8,2470.463,13.33,0.04,40.0
2020-08-09T00:10:03,42.805,6.029,0.045,0.013,0.045,103.0,106.0,101.0,13.3,1505.4,326.6,-0.7,1.9,2470.466,13.34,0.046,73.9
2020-08-09T00:13:03,42.805,6.029,-0.014,0.002,-0.02,102.0,106.0,102.0,13.4,1505.4,327.6,-0.7,1.8,2470.443,13.34,0.014,278.1
2020-08-09T00:16:03,42.805,6.029,-0.014,0.016,-0.013,102.0,107.0,101.0,13.4,1505.4,323.3,-0.7,1.8,2470.457,13.34,0.021,318.8
2020-08-09T00:19:03,42.805,6.029,0.035,0.021,0.026,103.0,106.0,100.0,13.3,1505.4,325.9,-0.7,1.8,2470.427,13.34,0.04,59.0
2020-08-09T00:22:03,42.805,6.029,-0.029,0.023,0.0,104.0,106.0,101.0,13.3,1505.4,324.2,-0.7,1.8,2470.458,13.34,0.037,308.4
2020-08-09T00:25:03,42.805,6.029,0.004,0.006,-0.035,102.0,106.0,101.0,13.3,1505.4,324.0,-0.7,1.8,2470.425,13.34,0.007,33.7
2020-08-09T00:28:03,42.805,6.029,-0.009,0.028,-0.015,103.0,107.0,101.0,13.4,1505.4,327.5,-0.7,1.8,2470.42,13.34,0.029,342.2
2020-08-09T00:31:03,42.805,6.029,-0.012,0.027,-0.03,104.0,106.0,101.0,13.4,1505.4,327.3,-0.7,1.8,2470.448,13.34,0.029,336.0
2020-08-09T00:34:03,42.805,6.029,-0.002,0.013,-0.022,102.0,107.0,102.0,13.4,1505.4,325.8,-0.7,1.8,2470.411,13.34,0.013,351.3
2020-08-09T00:37:03,42.805,6.029,-0.002,0.005,-0.018,104.0,106.0,101.0,13.4,1505.4,324.1,-0.7,1.8,2470.411,13.34,0.005,338.2
2020-08-09T00:40:03,42.805,6.029,-0.003,0.0,-0.013,105.0,106.0,101.0,13.4,1505.4,325.5,-0.7,1.8,2470.41,13.34,0.003,270.0
2020-08-09T00:43:03,42.805,6.029,0.005,0.017,-0.002,104.0,106.0,102.0,13.4,1505.4,324.3,-0.7,1.8,2470.426,13.34,0.017,16.4
2020-08-09T00:46:03,42.805,6.029,-0.014,0.024,0.011,104.0,106.0,101.0,13.4,1505.4,326.6,-0.7,1.8,2470.43,13.34,0.027,329.7
2020-08-09T00:49:03,42.805,6.029,0.01,0.0,-0.005,103.0,107.0,100.0,13.4,1505.4,325.5,-0.7,1.8,2470.413,13.34,0.01,90.0
2020-08-09T00:52:03,42.805,6.029,0.026,0.006,-0.006,103.0,106.0,101.0,13.4,1505.4,326.5,-0.7,1.8,2470.437,13.34,0.026,77.0
2020-08-09T00:55:03,42.805,6.029,0.029,0.032,0.009,103.0,105.0,100.0,13.4,1505.4,324.0,-0.8,1.8,2470.416,13.34,0.043,42.2
2020-08-09T00:58:03,42.805,6.029,-0.001,0.035,0.007,102.0,106.0,99.0,13.4,1505.4,322.6,-0.7,1.8,2470.434,13.35,0.035,358.4
2020-08-09T01:04:03,42.805,6.029,0.012,0.003,0.0,106.0,107.0,103.0,13.4,1505.3,324.6,-0.7,1.8,2470.426,13.33,0.012,76.0
2020-08-09T01:07:03,42.805,6.029,0.002,0.023,-0.004,101.0,107.0,101.0,13.4,1505.3,324.3,-0.7,1.8,2470.455,13.33,0.023,5.0
2020-08-09T01:10:03,42.805,6.029,-0.016,0.008,0.0,104.0,106.0,101.0,13.4,1505.4,323.5,-0.7,1.8,2470.393,13.34,0.017,296.6
2020-08-09T01:13:03,42.805,6.029,0.002,0.027,-0.014,103.0,108.0,100.0,13.3,1505.4,325.3,-0.7,1.8,2470.467,13.34,0.027,4.2
2020-08-09T01:16:03,42.805,6.029,-0.01,0.003,-0.034,103.0,106.0,101.0,13.4,1505.4,323.1,-0.7,1.8,2470.389,13.34,0.01,286.7
2020-08-09T01:19:03,42.805,6.029,0.016,0.011,-0.018,104.0,105.0,101.0,13.4,1505.4,325.5,-0.7,1.8,2470.399,13.34,0.019,55.5
2020-08-09T01:22:03,42.805,6.029,-0.001,-0.001,-0.016,104.0,107.0,100.0,13.4,1505.4,324.9,-0.7,1.8,2470.397,13.34,0.001,225.0
2020-08-09T01:25:03,42.805,6.029,0.011,0.005,-0.003,103.0,106.0,100.0,13.4,1505.4,328.0,-0.7,1.8,2470.361,13.34,0.012,65.6
2020-08-09T01:28:03,42.805,6.029,-0.027,0.025,-0.042,103.0,108.0,101.0,13.4,1505.4,326.6,-0.7,1.8,2470.423,13.34,0.036,312.8
2020-08-09T01:31:03,42.805,6.029,0.008,0.012,0.014,103.0,106.0,101.0,13.4,1505.4,326.1,-0.7,1.8,2470.403,13.34,0.014,33.7
2020-08-09T01:34:03,42.805,6.029,0.011,0.006,0.028,103.0,107.0,100.0,13.4,1505.4,325.0,-0.7,1.8,2470.443,13.34,0.012,61.4
2020-08-09T01:37:03,42.805,6.029,0.029,0.017,0.005,102.0,106.0,102.0,13.4,1505.4,326.5,-0.7,1.8,2470.395,13.34,0.033,59.6
2020-08-09T01:40:03,42.805,6.029,0.001,0.022,0.024,103.0,106.0,101.0,13.3,1505.4,328.0,-0.7,1.8,2470.414,13.34,0.022,2.6
2020-08-09T01:43:03,42.805,6.029,-0.002,0.03,0.0,103.0,107.0,101.0,13.4,1505.4,328.2,-0.7,1.8,2470.397,13.34,0.03,356.2
2020-08-09T01:46:03,42.805,6.029,0.0,0.028,0.0,102.0,105.0,101.0,13.4,1505.4,327.9,-0.7,1.8,2470.359,13.34,0.028,0.0
2020-08-09T01:49:03,42.805,6.029,-0.002,0.021,-0.012,103.0,105.0,102.0,13.3,1505.4,325.7,-0.7,1.8,2470.35,13.34,0.021,354.6
2020-08-09T01:52:03,42.805,6.029,0.017,0.021,-0.003,102.0,105.0,101.0,13.4,1505.4,323.6,-0.8,1.8,2470.411,13.34,0.027,39.0
2020-08-09T01:55:03,42.805,6.029,0.006,0.005,-0.028,102.0,106.0,99.0,13.4,1505.4,328.3,-0.7,1.8,2470.411,13.34,0.007,50.2
2020-08-09T01:58:03,42.805,6.029,0.028,0.005,-0.013,102.0,106.0,101.0,13.3,1505.4,324.4,-0.7,1.8,2470.399,13.34,0.028,79.9
2020-08-09T02:04:03,42.805,6.029,0.031,0.019,-0.003,103.0,106.0,101.0,13.4,1505.3,323.2,-0.8,1.8,2470.387,13.32,0.036,58.5
2020-08-09T02:07:03,42.805,6.029,0.04,0.018,0.007,103.0,106.0,101.0,13.3,1505.3,326.4,-0.7,1.9,2470.43,13.33,0.043,65.8
2020-08-09T02:10:03,42.805,6.029,0.008,0.0,0.01,103.0,106.0,101.0,13.3,1505.3,322.7,-0.7,1.8,2470.416,13.33,0.008,90.0
2020-08-09T02:13:03,42.805,6.029,0.023,0.033,0.026,103.0,107.0,103.0,13.4,1505.4,324.7,-0.7,1.8,2470.41,13.34,0.04,34.9
2020-08-09T02:16:03,42.805,6.029,0.021,0.019,-0.006,103.0,106.0,102.0,13.4,1505.4,327.5,-0.7,1.8,2470.378,13.34,0.028,47.9
2020-08-09T02:19:03,42.805,6.029,0.01,0.026,0.012,103.0,108.0,102.0,13.4,1505.4,323.8,-0.7,1.8,2470.404,13.34,0.027,21.0
2020-08-09T02:22:03,42.805,6.029,0.006,0.018,-0.022,102.0,106.0,102.0,13.3,1505.4,326.4,-0.7,1.8,2470.36,13.34,0.018,18.4
2020-08-09T02:25:03,42.805,6.029,0.005,0.022,-0.01,103.0,106.0,103.0,13.4,1505.4,325.3,-0.7,1.8,2470.384,13.34,0.022,12.8
2020-08-09T02:28:03,42.805,6.029,0.002,0.006,-0.011,106.0,107.0,102.0,13.4,1505.4,325.3,-0.7,1.9,2470.367,13.34,0.006,18.4
2020-08-09T02:31:03,42.805,6.029,0.005,0.033,0.01,104.0,106.0,100.0,13.4,1505.4,328.4,-0.7,1.8,2470.382,13.34,0.033,8.6
2020-08-09T02:34:03,42.805,6.029,0.001,0.032,0.017,104.0,105.0,101.0,13.4,1505.4,327.8,-0.7,1.8,2470.379,13.34,0.032,1.8
2020-08-09T02:37:03,42.805,6.029,-0.005,0.031,-0.021,104.0,106.0,101.0,13.4,1505.4,325.8,-0.7,1.8,2470.353,13.34,0.031,350.8
2020-08-09T02:40:03,42.805,6.029,0.007,0.014,0.035,102.0,106.0,100.0,13.4,1505.4,326.2,-0.7,1.8,2470.384,13.34,0.015,26.6
2020-08-09T02:43:03,42.805,6.029,0.008,0.031,-0.012,103.0,106.0,101.0,13.4,1505.4,324.8,-0.7,1.8,2470.37,13.34,0.032,14.5
2020-08-09T02:46:03,42.805,6.029,-0.002,0.021,-0.018,102.0,105.0,101.0,13.4,1505.4,325.6,-0.7,1.8,2470.362,13.34,0.021,354.6
2020-08-09T02:49:03,42.805,6.029,-0.014,0.023,-0.01,102.0,107.0,99.0,13.3,1505.4,326.9,-0.7,1.8,2470.33,13.34,0.026,328.7
2020-08-09T02:52:03,42.805,6.029,-0.013,0.008,-0.026,101.0,107.0,100.0,13.3,1505.4,324.1,-0.7,1.8,2470.389,13.34,0.015,301.6
2020-08-09T02:55:03,42.805,6.029,0.0,0.016,-0.002,104.0,107.0,100.0,13.4,1505.4,326.7,-0.7,1.8,2470.346,13.34,0.016,0.0
2020-08-09T02:58:03,42.805,6.029,0.002,0.035,-0.011,102.0,107.0,100.0,13.3,1505.4,323.7,-0.7,1.8,2470.32,13.34,0.035,3.3
2020-08-09T03:04:03,42.805,6.029,0.022,0.034,0.011,103.0,105.0,100.0,13.4,1505.3,324.2,-0.8,1.8,2470.386,13.32,0.04,32.9
2020-08-09T03:07:03,42.805,6.029,0.018,0.015,0.026,102.0,105.0,100.0,13.4,1505.3,324.4,-0.7,1.9,2470.328,13.33,0.023,50.2
2020-08-09T03:10:03,42.805,6.029,0.005,0.035,0.016,103.0,106.0,100.0,13.3,1505.3,322.9,-0.7,1.8,2470.361,13.33,0.035,8.1
2020-08-09T03:13:03,42.805,6.029,0.003,0.03,0.007,103.0,105.0,101.0,13.3,1505.3,327.9,-0.7,1.8,2470.355,13.33,0.03,5.7
2020-08-09T03:16:03,42.805,6.029,-0.002,0.026,0.026,102.0,108.0,100.0,13.3,1505.3,324.3,-0.7,1.8,2470.348,13.33,0.026,355.6
2020-08-09T03:19:03,42.805,6.029,0.004,0.017,0.002,104.0,105.0,100.0,13.4,1505.3,326.7,-0.7,1.8,2470.341,13.33,0.017,13.2
2020-08-09T03:22:03,42.805,6.029,-0.008,0.017,0.009,104.0,106.0,102.0,13.3,1505.4,326.2,-0.7,1.8,2470.37,13.34,0.018,334.8
2020-08-09T03:25:03,42.805,6.029,0.011,0.006,0.023,103.0,106.0,101.0,13.4,1505.4,323.3,-0.7,1.8,2470.367,13.34,0.012,61.4
2020-08-09T03:28:03,42.805,6.029,-0.002,0.021,-0.014,104.0,106.0,101.0,13.4,1505.4,324.5,-0.7,1.8,2470.313,13.34,0.021,354.6
2020-08-09T03:31:03,42.805,6.029,0.003,0.029,0.003,103.0,108.0,100.0,13.4,1505.4,324.1,-0.7,1.8,2470.338,13.34,0.029,5.9
2020-08-09T03:34:03,42.805,6.029,0.008,0.016,0.043,103.0,105.0,101.0,13.4,1505.4,324.5,-0.7,1.8,2470.324,13.34,0.017,26.6
2020-08-09T03:37:03,42.805,6.029,0.003,0.041,0.021,102.0,106.0,100.0,13.4,1505.4,323.8,-0.7,1.8,2470.385,13.34,0.041,4.2
2020-08-09T03:40:03,42.805,6.029,0.027,0.028,-0.006,102.0,106.0,102.0,13.4,1505.4,326.6,-0.7,1.8,2470.326,13.34,0.038,44.0
2020-08-09T03:43:03,42.805,6.029,0.022,0.019,-0.005,103.0,107.0,101.0,13.4,1505.4,327.5,-0.7,1.9,2470.355,13.34,0.029,49.2
2020-08-09T03:46:03,42.805,6.029,0.032,0.0,0.036,102.0,107.0,102.0,13.4,1505.4,325.1,-0.7,1.8,2470.309,13.34,0.032,90.0
2020-08-09T03:49:03,42.805,6.029,0.027,0.012,-0.021,100.0,107.0,102.0,13.4,1505.4,322.9,-0.7,1.9,2470.318,13.34,0.029,66.0
2020-08-09T03:52:03,42.805,6.029,-0.003,0.0,-0.005,103.0,106.0,101.0,13.4,1505.4,325.9,-0.7,1.9,2470.331,13.34,0.003,270.0
2020-08-09T03:55:03,42.805,6.029,0.027,0.04,0.019,104.0,106.0,100.0,13.4,1505.4,328.0,-0.7,1.9,2470.319,13.34,0.048,34.0
2020-08-09T03:58:03,42.805,6.029,0.013,0.009,-0.02,103.0,105.0,101.0,13.3,1505.4,325.1,-0.7,1.8,2470.291,13.34,0.015,55.3
2020-08-09T04:04:03,42.805,6.029,-0.012,0.014,-0.019,103.0,106.0,101.0,13.3,1505.3,323.7,-0.7,1.8,2470.336,13.32,0.018,319.4
2020-08-09T04:07:03,42.805,6.029,0.017,0.021,0.014,105.0,105.0,101.0,13.3,1505.3,326.3,-0.7,1.8,2470.379,13.32,0.027,39.0
2020-08-09T04:10:03,42.805,6.029,0.006,0.022,0.011,102.0,107.0,101.0,13.3,1505.3,323.5,-0.7,1.8,2470.363,13.33,0.022,15.3
2020-08-09T04:13:03,42.805,6.029,0.0,0.026,-0.019,101.0,107.0,101.0,13.3,1505.3,326.6,-0.7,1.9,2470.354,13.33,0.026,0.0
2020-08-09T04:16:03,42.805,6.029,-0.008,0.021,0.012,102.0,107.0,101.0,13.4,1505.3,326.1,-0.7,1.8,2470.329,13.33,0.022,339.1
2020-08-09T04:19:03,42.805,6.029,0.015,0.012,-0.008,104.0,106.0,102.0,13.4,1505.3,323.7,-0.7,1.8,2470.354,13.33,0.019,51.3
2020-08-09T04:22:03,42.805,6.029,-0.005,0.017,0.005,103.0,106.0,100.0,13.4,1505.4,324.8,-0.7,1.8,2470.284,13.34,0.017,343.6
2020-08-09T04:25:03,42.805,6.029,0.015,0.021,0.041,101.0,106.0,101.0,13.3,1505.4,325.3,-0.7,1.8,2470.34,13.34,0.025,35.5
2020-08-09T04:28:03,42.805,6.029,0.012,0.03,-0.007,102.0,106.0,101.0,13.4,1505.4,327.9,-0.7,1.8,2470.332,13.34,0.032,21.8
2020-08-09T04:31:03,42.805,6.029,0.007,0.019,0.011,104.0,107.0,102.0,13.4,1505.4,326.9,-0.7,1.8,2470.333,13.34,0.02,20.2
2020-08-09T04:34:03,42.805,6.029,0.034,0.01,0.017,104.0,107.0,102.0,13.4,1505.4,322.6,-0.7,1.8,2470.309,13.34,0.035,73.6
2020-08-09T04:37:03,42.805,6.029,0.022,0.022,0.0,103.0,106.0,101.0,13.3,1505.4,324.5,-0.7,1.8,2470.288,13.34,0.031,45.0
2020-08-09T04:40:03,42.805,6.029,-0.009,0.007,-0.031,103.0,106.0,100.0,13.3,1505.4,327.0,-0.7,1.8,2470.312,13.34,0.011,307.9
2020-08-09T04:43:03,42.805,6.029,0.003,0.018,0.015,104.0,106.0,100.0,13.4,1505.4,325.5,-0.7,1.8,2470.316,13.34,0.018,9.5
2020-08-09T04:46:03,42.805,6.029,0.019,0.017,0.011,103.0,106.0,100.0,13.3,1505.4,325.3,-0.7,1.9,2470.298,13.34,0.025,48.2
2020-08-09T04:49:03,42.805,6.029,0.017,0.022,0.024,103.0,107.0,101.0,13.4,1505.4,325.0,-0.7,1.8,2470.33,13.34,0.027,37.7
2020-08-09T04:52:03,42.805,6.029,0.024,0.027,0.011,105.0,105.0,101.0,13.4,1505.4,325.3,-0.7,1.8,2470.309,13.34,0.036,41.6
2020-08-09T04:55:03,42.805,6.029,0.014,0.009,0.011,103.0,106.0,100.0,13.4,1505.4,326.8,-0.7,1.8,2470.319,13.34,0.016,57.3
2020-08-09T04:58:03,42.805,6.029,-0.003,0.029,-0.003,102.0,106.0,101.0,13.4,1505.4,326.1,-0.7,1.8,2470.32,13.34,0.029,354.1
2020-08-09T05:04:03,42.805,6.029,-0.003,0.019,0.002,103.0,108.0,101.0,13.4,1505.3,323.4,-0.8,1.8,2470.37,13.32,0.019,351.0
2020-08-09T05:07:03,42.805,6.029,0.063,0.014,0.031,102.0,105.0,101.0,13.4,1505.3,326.3,-0.7,1.8,2470.303,13.32,0.064,77.5
2020-08-09T05:10:03,42.805,6.029,0.037,0.014,0.037,102.0,106.0,102.0,13.4,1505.3,325.4,-0.7,1.8,2470.384,13.33,0.039,69.3
2020-08-09T05:13:03,42.805,6.029,0.039,0.025,0.02,102.0,106.0,100.0,13.3,1505.3,322.8,-0.7,1.9,2470.354,13.33,0.046,57.3
2020-08-09T05:16:03,42.805,6.029,0.008,0.02,0.009,103.0,105.0,100.0,13.3,1505.3,324.7,-0.7,1.8,2470.29,13.33,0.021,21.8
2020-08-09T05:19:03,42.805,6.029,0.016,0.004,-0.013,104.0,106.0,100.0,13.4,1505.3,325.1,-0.7,1.8,2470.322,13.33,0.016,76.0
2020-08-09T05:22:03,42.805,6.029,0.015,0.007,0.011,103.0,106.0,101.0,13.4,1505.4,326.6,-0.8,1.8,2470.295,13.34,0.016,65.0
2020-08-09T05:25:03,42.805,6.029,0.023,0.027,0.009,103.0,105.0,101.0,13.4,1505.4,324.7,-0.7,1.8,2470.334,13.34,0.035,40.4
2020-08-09T05:28:03,42.805,6.029,0.022,0.027,0.027,102.0,106.0,101.0,13.3,1505.4,327.6,-0.7,1.8,2470.337,13.34,0.034,39.2
2020-08-09T05:31:03,42.805,6.029,0.011,0.03,-0.004,102.0,106.0,100.0,13.4,1505.4,324.1,-0.7,1.8,2470.324,13.34,0.031,20.1
2020-08-09T05:34:03,42.805,6.029,0.006,0.037,0.018,103.0,107.0,101.0,13.3,1505.4,323.4,-0.7,1.8,2470.282,13.34,0.037,9.2
2020-08-09T05:37:03,42.805,6.029,-0.009,0.031,0.022,101.0,108.0,101.0,13.3,1505.4,324.7,-0.7,1.8,2470.314,13.34,0.032,343.8
2020-08-09T05:40:03,42.805,6.029,-0.007,0.018,-0.003,104.0,105.0,101.0,13.3,1505.4,325.6,-0.7,1.8,2470.325,13.34,0.019,338.8
2020-08-09T05:43:03,42.805,6.029,0.024,0.022,0.02,104.0,106.0,101.0,13.3,1505.4,326.6,-0.7,1.8,2470.26,13.34,0.032,47.5
2020-08-09T05:46:03,42.805,6.029,0.035,0.035,-0.006,102.0,105.0,101.0,13.3,1505.4,324.7,-0.7,1.8,2470.294,13.34,0.049,45.0
2020-08-09T05:49:03,42.805,6.029,0.024,0.018,0.025,102.0,106.0,101.0,13.4,1505.4,326.3,-0.7,1.8,2470.291,13.34,0.03,53.1
2020-08-09T05:52:03,42.805,6.029,0.014,0.022,0.009,102.0,107.0,101.0,13.3,1505.4,324.8,-0.7,1.8,2470.339,13.34,0.026,32.5
2020-08-09T05:55:03,42.805,6.029,0.013,0.029,0.009,104.0,106.0,100.0,13.4,1505.4,325.8,-0.7,1.8,2470.328,13.34,0.031,24.1
2020-08-09T05:58:03,42.805,6.029,0.02,0.033,0.013,102.0,106.0,101.0,13.4,1505.4,326.5,-0.7,1.8,2470.347,13.34,0.038,31.2
2020-08-09T06:04:03,42.805,6.029,0.025,0.021,-0.01,103.0,107.0,101.0,13.4,1505.3,326.1,-0.7,1.8,2470.329,13.32,0.032,50.0
2020-08-09T06:07:03,42.805,6.029,0.001,0.015,-0.032,103.0,105.0,101.0,13.4,1505.3,325.6,-0.7,1.8,2470.34,13.32,0.015,3.8
2020-08-09T06:10:03,42.805,6.029,0.009,0.002,0.002,103.0,107.0,102.0,13.4,1505.3,324.2,-0.7,1.8,2470.315,13.33,0.009,77.5
2020-08-09T06:13:03,42.805,6.029,0.018,0.01,0.021,103.0,106.0,101.0,13.4,1505.3,328.0,-0.7,1.8,2470.342,13.33,0.02,60.9
2020-08-09T06:16:03,42.805,6.029,0.012,0.026,-0.008,103.0,106.0,99.0,13.4,1505.3,326.2,-0.7,1.8,2470.364,13.33,0.028,24.8
2020-08-09T06:19:03,42.805,6.029,-0.011,0.015,-0.028,102.0,107.0,101.0,13.4,1505.3,323.5,-0.7,1.8,2470.391,13.33,0.018,323.7
2020-08-09T06:22:03,42.805,6.029,0.012,0.031,0.04,103.0,106.0,101.0,13.4,1505.4,324.6,-0.7,1.8,2470.321,13.34,0.033,21.2
2020-08-09T06:25:03,42.805,6.029,0.006,0.026,0.012,103.0,107.0,100.0,13.4,1505.4,323.6,-0.7,1.8,2470.335,13.34,0.026,13.0
2020-08-09T06:28:03,42.805,6.029,0.022,0.031,0.034,104.0,105.0,102.0,13.4,1505.4,324.8,-0.7,1.8,2470.374,13.34,0.038,35.4
2020-08-09T06:31:03,42.805,6.029,0.015,0.022,0.0,105.0,107.0,99.0,13.3,1505.4,324.0,-0.7,1.8,2470.31,13.34,0.026,34.3
2020-08-09T06:34:03,42.805,6.029,0.013,0.022,0.004,105.0,105.0,101.0,13.3,1505.4,323.5,-0.7,1.8,2470.324,13.34,0.025,30.6
2020-08-09T06:37:03,42.805,6.029,0.002,0.007,-0.01,104.0,108.0,101.0,13.4,1505.4,325.8,-0.7,1.8,2470.329,13.34,0.007,15.9
2020-08-09T06:40:03,42.805,6.029,0.008,0.011,-0.016,104.0,106.0,102.0,13.3,1505.4,325.1,-0.7,1.8,2470.303,13.34,0.013,36.0
2020-08-09T06:43:03,42.805,6.029,-0.015,0.024,-0.047,105.0,106.0,100.0,13.4,1505.4,325.9,-0.7,1.8,2470.334,13.34,0.028,328.0
2020-08-09T06:46:03,42.805,6.029,-0.009,0.017,0.004,103.0,106.0,102.0,13.4,1505.4,326.9,-0.7,1.8,2470.299,13.34,0.019,332.1
2020-08-09T06:49:03,42.805,6.029,0.01,0.016,-0.027,103.0,106.0,101.0,13.4,1505.4,326.0,-0.7,1.8,2470.357,13.34,0.018,32.0
2020-08-09T06:52:03,42.805,6.029,0.025,0.008,0.007,102.0,107.0,102.0,13.4,1505.4,326.2,-0.7,1.8,2470.364,13.34,0.026,72.3
2020-08-09T06:55:03,42.805,6.029,0.004,0.02,-0.027,104.0,109.0,102.0,13.3,1505.4,323.6,-0.7,1.8,2470.341,13.34,0.02,11.3
2020-08-09T06:58:03,42.805,6.029,0.018,0.016,0.003,105.0,106.0,101.0,13.4,1505.4,324.4,-0.7,1.8,2470.307,13.34,0.024,48.4
2020-08-09T07:04:03,42.805,6.029,-0.018,0.025,-0.005,102.0,109.0,100.0,13.4,1505.3,324.6,-0.7,1.8,2470.374,13.32,0.03,324.2
2020-08-09T07:07:03,42.805,6.029,-0.013,0.017,-0.035,104.0,108.0,101.0,13.4,1505.3,324.3,-0.7,1.8,2470.358,13.33,0.021,322.6
2020-08-09T07:10:03,42.805,6.029,-0.021,0.018,-0.035,105.0,110.0,101.0,13.4,1505.3,324.7,-0.7,1.8,2470.341,13.33,0.027,310.6
2020-08-09T07:13:03,42.805,6.029,-0.011,0.026,-0.046,103.0,108.0,102.0,13.3,1505.3,325.3,-0.7,1.8,2470.353,13.33,0.028,337.1
2020-08-09T07:16:03,42.805,6.029,0.0,0.012,-0.011,101.0,110.0,101.0,13.3,1505.3,324.9,-0.7,1.8,2470.371,13.33,0.012,0.0
2020-08-09T07:19:03,42.805,6.029,-0.019,0.032,-0.018,103.0,107.0,102.0,13.3,1505.4,324.8,-0.7,1.9,2470.333,13.34,0.037,329.3
2020-08-09T07:22:03,42.805,6.029,-0.037,0.035,-0.065,104.0,107.0,101.0,13.3,1505.4,325.5,-0.7,1.8,2470.35,13.34,0.05,313.4
2020-08-09T07:25:03,42.805,6.029,-0.01,0.011,-0.034,102.0,107.0,100.0,13.4,1505.4,327.7,-0.7,1.8,2470.351,13.34,0.014,317.7
2020-08-09T07:28:03,42.805,6.029,-0.015,0.029,-0.017,103.0,109.0,101.0,13.4,1505.4,326.1,-0.7,1.8,2470.348,13.34,0.032,332.6
2020-08-09T07:31:03,42.805,6.029,0.014,0.006,-0.027,106.0,108.0,101.0,13.3,1505.4,327.6,-0.7,1.8,2470.338,13.34,0.015,66.8
2020-08-09T07:34:03,42.805,6.029,-0.012,0.022,-0.007,102.0,107.0,100.0,13.4,1505.4,324.6,-0.7,1.8,2470.319,13.34,0.025,331.4
2020-08-09T07:37:03,42.805,6.029,-0.012,0.013,-0.068,101.0,108.0,102.0,13.3,1505.4,327.8,-0.7,1.9,2470.335,13.34,0.017,317.3
2020-08-09T07:40:03,42.805,6.029,-0.027,0.025,-0.049,103.0,108.0,101.0,13.3,1505.4,325.4,-0.7,1.8,2470.373,13.34,0.036,312.8
2020-08-09T07:43:03,42.805,6.029,-0.019,0.019,-0.01,104.0,106.0,100.0,13.4,1505.4,325.7,-0.7,1.8,2470.37,13.34,0.026,315.0
2020-08-09T07:46:03,42.805,6.029,-0.04,0.025,-0.006,103.0,107.0,100.0,13.4,1505.4,325.8,-0.7,1.8,2470.347,13.34,0.047,302.0
2020-08-09T07:49:03,42.805,6.029,-0.021,0.024,-0.043,103.0,109.0,101.0,13.4,1505.4,326.0,-0.7,1.8,2470.358,13.34,0.031,318.8
2020-08-09T07:52:03,42.805,6.029,-0.044,0.046,-0.012,103.0,108.0,101.0,13.4,1505.4,327.2,-0.7,1.8,2470.321,13.34,0.063,316.3
2020-08-09T07:55:03,42.805,6.029,-0.051,0.028,-0.079,103.0,108.0,101.0,13.4,1505.4,323.3,-0.7,1.8,2470.362,13.34,0.058,298.8
2020-08-09T07:58:03,42.805,6.029,-0.054,0.021,-0.038,103.0,108.0,100.0,13.3,1505.4,325.9,-0.7,1.8,2470.333,13.34,0.057,291.2
2020-08-09T08:04:03,42.805,6.029,-0.017,0.022,-0.034,103.0,108.0,100.0,13.4,1505.3,327.7,-0.7,1.8,2470.387,13.32,0.027,322.3
2020-08-09T08:07:03,42.805,6.029,-0.018,0.018,-0.039,103.0,107.0,101.0,13.4,1505.3,327.1,-0.8,1.8,2470.386,13.33,0.025,315.0
2020-08-09T08:10:03,42.805,6.029,-0.005,0.036,-0.003,103.0,108.0,101.0,13.3,1505.3,324.7,-0.7,1.9,2470.376,13.33,0.036,352.1
2020-08-09T08:13:03,42.805,6.029,-0.021,0.01,-0.025,103.0,108.0,101.0,13.4,1505.3,324.0,-0.7,1.8,2470.365,13.33,0.023,295.5
2020-08-09T08:16:03,42.805,6.029,-0.001,0.024,-0.024,103.0,108.0,100.0,13.3,1505.4,326.1,-0.7,1.8,2470.419,13.34,0.024,357.6
2020-08-09T08:19:03,42.805,6.029,-0.016,0.027,-0.009,103.0,107.0,101.0,13.3,1505.4,328.1,-0.7,1.8,2470.421,13.34,0.031,329.3
2020-08-09T08:22:03,42.805,6.029,-0.003,-0.001,-0.05,103.0,107.0,102.0,13.4,1505.4,324.6,-0.7,1.8,2470.392,13.34,0.003,251.6
2020-08-09T08:25:03,42.805,6.029,-0.015,0.016,-0.025,102.0,107.0,101.0,13.3,1505.4,327.0,-0.7,1.8,2470.384,13.34,0.021,316.9
2020-08-09T08:28:03,42.805,6.029,-0.021,0.004,-0.022,102.0,107.0,100.0,13.4,1505.4,323.2,-0.7,1.8,2470.357,13.34,0.021,280.8
2020-08-09T08:31:03,42.805,6.029,-0.012,0.027,-0.007,102.0,107.0,100.0,13.3,1505.4,324.6,-0.7,1.8,2470.404,13.34,0.029,336.0
2020-08-09T08:34:03,42.805,6.029,0.001,0.012,-0.014,103.0,107.0,100.0,13.3,1505.4,323.9,-0.7,1.8,2470.401,13.34,0.012,4.8
2020-08-09T08:37:03,42.805,6.029,-0.028,0.013,-0.011,103.0,108.0,100.0,13.4,1505.4,326.2,-0.7,1.8,2470.411,13.34,0.03,294.9
2020-08-09T08:40:03,42.805,6.029,-0.002,0.016,-0.013,102.0,108.0,101.0,13.3,1505.4,323.2,-0.7,1.8,2470.381,13.34,0.016,352.9
2020-08-09T08:43:03,42.805,6.029,0.03,0.017,-0.007,102.0,108.0,101.0,13.4,1505.4,326.8,-0.7,1.8,2470.372,13.34,0.034,60.5
2020-08-09T08:46:03,42.805,6.029,0.001,0.016,-0.023,102.0,108.0,100.0,13.4,1505.4,325.1,-0.7,1.8,2470.36,13.34,0.016,3.6
2020-08-09T08:49:03,42.805,6.029,-0.005,0.015,-0.019,103.0,107.0,100.0,13.4,1505.4,328.1,-0.7,1.9,2470.342,13.35,0.015,341.6
2020-08-09T08:52:03,42.805,6.029,-0.022,0.007,0.004,103.0,106.0,101.0,13.3,1505.4,324.7,-0.7,1.8,2470.404,13.35,0.023,287.6
2020-08-09T08:55:03,42.805,6.029,-0.003,0.002,-0.019,102.0,106.0,101.0,13.4,1505.4,326.7,-0.7,1.8,2470.372,13.35,0.003,303.7
2020-08-09T08:58:03,42.805,6.029,-0.012,0.023,-0.042,104.0,105.0,101.0,13.4,1505.4,327.6,-0.7,1.9,2470.346,13.35,0.025,332.4
2020-08-09T09:04:03,42.805,6.029,0.01,0.015,0.028,103.0,107.0,101.0,13.4,1505.3,328.0,-0.7,1.8,2470.391,13.33,0.018,33.7
2020-08-09T09:07:03,42.805,6.029,-0.004,0.011,-0.05,102.0,107.0,102.0,13.4,1505.4,326.5,-0.7,1.8,2470.452,13.34,0.011,340.0
2020-08-09T09:10:03,42.805,6.029,-0.005,0.017,-0.036,103.0,108.0,100.0,13.4,1505.4,325.2,-0.7,1.8,2470.433,13.34,0.017,343.6
2020-08-09T09:13:03,42.805,6.029,-0.02,0.021,-0.032,104.0,107.0,100.0,13.4,1505.4,324.6,-0.7,1.8,2470.4,13.34,0.028,316.4
2020-08-09T09:16:03,42.805,6.029,-0.018,0.0,-0.043,103.0,107.0,101.0,13.4,1505.4,325.8,-0.7,1.8,2470.4,13.34,0.018,270.0
2020-08-09T09:19:03,42.805,6.029,0.0,0.019,-0.023,102.0,106.0,101.0,13.4,1505.4,327.3,-0.7,1.8,2470.419,13.34,0.019,0.0
2020-08-09T09:22:03,42.805,6.029,-0.007,0.027,0.002,104.0,107.0,103.0,13.4,1505.4,325.0,-0.7,1.8,2470.399,13.35,0.027,345.5
2020-08-09T09:25:03,42.805,6.029,-0.002,0.004,-0.023,103.0,108.0,103.0,13.4,1505.4,325.9,-0.7,1.8,2470.406,13.35,0.004,333.4
2020-08-09T09:28:03,42.805,6.029,-0.006,0.022,-0.01,103.0,107.0,101.0,13.4,1505.4,325.1,-0.7,1.8,2470.418,13.35,0.022,344.7
2020-08-09T09:31:03,42.805,6.029,-0.005,0.005,-0.027,102.0,108.0,102.0,13.4,1505.4,324.8,-0.7,1.8,2470.412,13.35,0.007,315.0
2020-08-09T09:34:03,42.805,6.029,-0.016,0.014,-0.036,104.0,107.0,101.0,13.4,1505.4,324.5,-0.7,1.8,2470.393,13.35,0.021,311.2
2020-08-09T09:37:03,42.805,6.029,-0.001,0.005,-0.017,104.0,106.0,102.0,13.3,1505.4,326.6,-0.7,1.9,2470.405,13.35,0.005,348.7
2020-08-09T09:40:03,42.805,6.029,0.011,0.02,-0.006,102.0,106.0,100.0,13.4,1505.4,322.7,-0.7,1.8,2470.372,13.35,0.022,28.8
2020-08-09T09:43:03,42.805,6.029,0.0,0.031,0.002,102.0,105.0,100.0,13.4,1505.4,326.4,-0.7,1.8,2470.425,13.35,0.03,0.0
2020-08-09T09:46:03,42.805,6.029,0.001,-0.003,-0.03,104.0,106.0,100.0,13.3,1505.4,327.0,-0.7,1.8,2470.39,13.35,0.003,161.6
2020-08-09T09:49:03,42.805,6.029,-0.003,0.011,-0.01,103.0,104.0,100.0,13.3,1505.4,327.5,-0.7,1.8,2470.381,13.35,0.011,344.7
2020-08-09T09:52:03,42.805,6.029,-0.029,0.017,-0.042,103.0,106.0,100.0,13.3,1505.4,325.8,-0.7,1.8,2470.367,13.35,0.033,300.4
2020-08-09T09:55:03,42.805,6.029,-0.001,-0.004,-0.03,101.0,105.0,103.0,13.4,1505.4,325.3,-0.7,1.8,2470.395,13.35,0.004,194.0
2020-08-09T09:58:03,42.805,6.029,-0.022,0.011,-0.013,102.0,107.0,101.0,13.3,1505.4,327.2,-0.7,1.8,2470.366,13.35,0.024,296.6
2020-08-09T10:04:03,42.805,6.029,0.0,-0.003,-0.041,101.0,107.0,102.0,13.4,1505.3,326.8,-0.7,1.8,2470.46,13.33,0.003,180.0